When you browse on this site, cookies collect data to enhance your experience and personalize the content and advertising you see.
Visit our Privacy Policy to learn more. By continuing to use the site, you agree to this use of cookies and data.
  • In Czech Republic
  • List of Countries
  • For 7 days
  • Water Temperature
  • Weather Map
  • Weather Widgets
  • user-avatar
    Login

    Hourly Weather Le Pre-Saint-Gervais

    Today, 3 June, Wednesday

    Time Temperature Precipitation Wind Pressure Humidity
    00:00 +18°C° 0 mm 2 mps 753 mmHg 70%
    01:00 +18°C° 0.5 mm 2 mps 752 mmHg 73%
    02:00 +18°C° 0.5 mm 1 mps 752 mmHg 75%
    03:00 +18°C° 0.5 mm 1 mps 751 mmHg 77%
    04:00 +18°C° 0.7 mm 1 mps 751 mmHg 76%
    05:00 +18°C° 0.7 mm 1 mps 751 mmHg 76%
    06:00 +18°C° 0 mm 2 mps 750 mmHg 71%
    07:00 +19°C° 0.4 mm 2 mps 750 mmHg 68%
    08:00 +20°C° 0.4 mm 2 mps 750 mmHg 64%
    09:00 +21°C° 0.4 mm 2 mps 749 mmHg 61%
    10:00 +23°C° 0.1 mm 2 mps 749 mmHg 57%
    11:00 +24°C° 0.1 mm 3 mps 748 mmHg 53%
    12:00 +25°C° 0.1 mm 3 mps 748 mmHg 50%
    13:00 +25°C° 0.3 mm 3 mps 747 mmHg 52%
    14:00 +25°C° 0.3 mm 3 mps 747 mmHg 54%
    15:00 +25°C° 0.3 mm 3 mps 746 mmHg 57%
    16:00 +22°C° 1.1 mm 3 mps 746 mmHg 61%
    17:00 +21°C° 1.1 mm 3 mps 746 mmHg 66%
    18:00 +20°C° 1.1 mm 3 mps 746 mmHg 70%
    19:00 +19°C° 0.5 mm 3 mps 746 mmHg 71%
    20:00 +18°C° 0.5 mm 3 mps 746 mmHg 72%
    21:00 +17°C° 0.5 mm 3 mps 746 mmHg 73%
    22:00 +16°C° 0 mm 3 mps 746 mmHg 75%
    23:00 +16°C° 0 mm 3 mps 745 mmHg 77%

    Tomorrow, 4 June, Thursday

    Time Temperature Precipitation Wind Pressure Humidity
    00:00 +14°C° 0 mm 3 mps 745 mmHg 80%
    01:00 +13°C° 0 mm 3 mps 745 mmHg 81%
    02:00 +12°C° 0 mm 3 mps 745 mmHg 83%
    03:00 +12°C° 0 mm 3 mps 745 mmHg 85%
    04:00 +12°C° 0 mm 4 mps 745 mmHg 83%
    05:00 +12°C° 0 mm 4 mps 745 mmHg 81%
    06:00 +13°C° 0 mm 4 mps 744 mmHg 79%
    07:00 +14°C° 0 mm 4 mps 745 mmHg 74%
    08:00 +15°C° 0 mm 4 mps 745 mmHg 70%
    09:00 +17°C° 0 mm 4 mps 745 mmHg 65%
    10:00 +15°C° 0.2 mm 4 mps 745 mmHg 67%
    11:00 +15°C° 0.2 mm 4 mps 745 mmHg 69%
    12:00 +14°C° 0.2 mm 4 mps 745 mmHg 70%
    13:00 +15°C° 0.1 mm 4 mps 745 mmHg 68%
    14:00 +15°C° 0.1 mm 4 mps 745 mmHg 66%
    15:00 +16°C° 0.1 mm 5 mps 745 mmHg 64%
    16:00 +15°C° 0.1 mm 5 mps 745 mmHg 66%
    17:00 +15°C° 0.1 mm 5 mps 745 mmHg 68%
    18:00 +14°C° 0.1 mm 5 mps 745 mmHg 71%
    19:00 +13°C° 0.1 mm 4 mps 746 mmHg 74%
    20:00 +12°C° 0.1 mm 3 mps 746 mmHg 76%
    21:00 +13°C° 0.1 mm 2 mps 747 mmHg 79%
    22:00 +12°C° 0 mm 2 mps 747 mmHg 80%
    23:00 +12°C° 0 mm 2 mps 747 mmHg 82%

    Day after tomorrow, 5 June, Friday

    Time Temperature Precipitation Wind Pressure Humidity
    00:00 +10°C° 0 mm 2 mps 747 mmHg 83%
    01:00 +10°C° 0 mm 3 mps 747 mmHg 83%
    02:00 +10°C° 0 mm 3 mps 747 mmHg 83%
    03:00 +10°C° 0 mm 3 mps 747 mmHg 82%
    04:00 +10°C° 0 mm 4 mps 746 mmHg 80%
    05:00 +11°C° 0 mm 4 mps 746 mmHg 78%
    06:00 +10°C° 0 mm 5 mps 746 mmHg 76%
    07:00 +10°C° 0.8 mm 5 mps 745 mmHg 80%
    08:00 +10°C° 0.8 mm 6 mps 745 mmHg 84%
    09:00 +10°C° 0.8 mm 6 mps 745 mmHg 88%
    10:00 +11°C° 0.3 mm 6 mps 745 mmHg 86%
    11:00 +13°C° 0.3 mm 6 mps 745 mmHg 84%
    12:00 +14°C° 0.3 mm 6 mps 745 mmHg 81%
    13:00 +14°C° 0.1 mm 6 mps 745 mmHg 78%
    14:00 +15°C° 0.1 mm 6 mps 745 mmHg 75%
    15:00 +15°C° 0.1 mm 6 mps 745 mmHg 71%
    16:00 +15°C° 0.4 mm 5 mps 745 mmHg 76%
    17:00 +14°C° 0.4 mm 5 mps 745 mmHg 81%
    18:00 +13°C° 0.4 mm 4 mps 745 mmHg 87%
    19:00 +13°C° 0.3 mm 5 mps 745 mmHg 86%
    20:00 +13°C° 0.3 mm 5 mps 746 mmHg 86%
    21:00 +13°C° 0.3 mm 5 mps 746 mmHg 86%
    22:00 +13°C° 0.2 mm 5 mps 746 mmHg 85%
    23:00 +12°C° 0.2 mm 4 mps 746 mmHg 84%

    6 June, Saturday

    Time Temperature Precipitation Wind Pressure Humidity
    00:00 +12°C° 0.2 mm 4 mps 746 mmHg 83%
    01:00 +11°C° 0 mm 4 mps 747 mmHg 82%
    02:00 +11°C° 0 mm 3 mps 747 mmHg 82%
    03:00 +10°C° 0 mm 3 mps 747 mmHg 81%
    04:00 +11°C° 0 mm 3 mps 747 mmHg 80%
    05:00 +12°C° 0 mm 2 mps 747 mmHg 79%
    06:00 +12°C° 0 mm 2 mps 748 mmHg 78%
    07:00 +12°C° 0 mm 3 mps 748 mmHg 72%
    08:00 +14°C° 0 mm 3 mps 748 mmHg 66%
    09:00 +15°C° 0 mm 4 mps 748 mmHg 61%
    10:00 +17°C° 0.1 mm 4 mps 748 mmHg 55%
    11:00 +17°C° 0.1 mm 5 mps 748 mmHg 50%
    12:00 +19°C° 0.1 mm 5 mps 748 mmHg 44%
    13:00 +19°C° 0.1 mm 5 mps 748 mmHg 47%
    14:00 +17°C° 0.1 mm 5 mps 748 mmHg 50%
    15:00 +17°C° 0.1 mm 5 mps 748 mmHg 53%
    16:00 +16°C° 0 mm 5 mps 748 mmHg 53%
    17:00 +15°C° 0 mm 5 mps 748 mmHg 54%
    18:00 +14°C° 0 mm 5 mps 749 mmHg 54%
    19:00 +13°C° 0 mm 4 mps 749 mmHg 57%
    20:00 +12°C° 0 mm 4 mps 750 mmHg 60%
    21:00 +10°C° 0 mm 3 mps 750 mmHg 63%
    22:00 +10°C° 0 mm 3 mps 750 mmHg 64%
    23:00 +10°C° 0 mm 3 mps 750 mmHg 64%

    7 June, Sunday

    Time Temperature Precipitation Wind Pressure Humidity
    00:00 +9°C° 0 mm 3 mps 750 mmHg 64%
    01:00 +9°C° 0 mm 3 mps 751 mmHg 67%
    02:00 +8°C° 0 mm 3 mps 751 mmHg 70%
    03:00 +7°C° 0 mm 4 mps 751 mmHg 73%
    04:00 +8°C° 0 mm 4 mps 751 mmHg 72%
    05:00 +8°C° 0 mm 4 mps 751 mmHg 72%
    06:00 +10°C° 0 mm 4 mps 751 mmHg 71%
    07:00 +10°C° 0 mm 5 mps 752 mmHg 66%
    08:00 +13°C° 0 mm 5 mps 752 mmHg 60%
    09:00 +14°C° 0 mm 5 mps 752 mmHg 54%
    10:00 +15°C° 0.2 mm 5 mps 752 mmHg 55%
    11:00 +15°C° 0.2 mm 5 mps 752 mmHg 56%
    12:00 +15°C° 0.2 mm 5 mps 752 mmHg 57%
    13:00 +16°C° 0.1 mm 5 mps 752 mmHg 56%
    14:00 +16°C° 0.1 mm 5 mps 752 mmHg 56%
    15:00 +16°C° 0.1 mm 5 mps 752 mmHg 56%
    16:00 +16°C° 0.4 mm 5 mps 752 mmHg 61%
    17:00 +15°C° 0.4 mm 5 mps 752 mmHg 65%
    18:00 +15°C° 0.4 mm 4 mps 752 mmHg 70%
    19:00 +14°C° 0.1 mm 4 mps 752 mmHg 73%
    20:00 +13°C° 0.1 mm 3 mps 753 mmHg 76%
    21:00 +12°C° 0.1 mm 3 mps 753 mmHg 79%
    22:00 +12°C° 0 mm 3 mps 753 mmHg 80%
    23:00 +11°C° 0 mm 4 mps 753 mmHg 82%

    8 June, Monday

    Time Temperature Precipitation Wind Pressure Humidity
    00:00 +11°C° 0 mm 4 mps 753 mmHg 84%
    01:00 +11°C° 0 mm 4 mps 753 mmHg 85%
    02:00 +11°C° 0 mm 4 mps 752 mmHg 87%
    03:00 +11°C° 0 mm 4 mps 752 mmHg 88%
    04:00 +11°C° 0.1 mm 4 mps 752 mmHg 88%
    05:00 +11°C° 0.1 mm 4 mps 752 mmHg 88%
    06:00 +10°C° 0.1 mm 5 mps 753 mmHg 88%
    07:00 +12°C° 0.3 mm 5 mps 753 mmHg 87%
    08:00 +12°C° 0.3 mm 5 mps 753 mmHg 87%
    09:00 +13°C° 0.3 mm 5 mps 753 mmHg 86%
    10:00 +14°C° 0.5 mm 5 mps 754 mmHg 81%
    11:00 +16°C° 0.5 mm 5 mps 754 mmHg 75%
    12:00 +17°C° 0.5 mm 5 mps 754 mmHg 70%
    13:00 +17°C° 0.6 mm 5 mps 754 mmHg 68%
    14:00 +19°C° 0.6 mm 5 mps 754 mmHg 66%
    15:00 +19°C° 0.6 mm 5 mps 753 mmHg 65%
    16:00 +19°C° 0.2 mm 5 mps 754 mmHg 66%
    17:00 +19°C° 0.2 mm 4 mps 754 mmHg 67%
    18:00 +18°C° 0.2 mm 4 mps 754 mmHg 69%
    19:00 +17°C° 0 mm 3 mps 754 mmHg 73%
    20:00 +16°C° 0 mm 3 mps 754 mmHg 77%
    21:00 +14°C° 0 mm 2 mps 755 mmHg 81%
    22:00 +14°C° 0 mm 2 mps 755 mmHg 82%
    23:00 +13°C° 0 mm 2 mps 755 mmHg 83%
    Show more